Year,Month,Day,Hour,Minute,Value (Times are PST for temperature in C)
2019,03,21,00,00,10.80
2019,03,21,00,01,10.80
2019,03,21,00,02,10.80
2019,03,21,00,03,10.90
2019,03,21,00,04,11.00
2019,03,21,00,05,11.10
2019,03,21,00,06,11.20
2019,03,21,00,07,11.30
2019,03,21,00,08,11.30
2019,03,21,00,09,11.40
2019,03,21,00,10,11.40
2019,03,21,00,11,11.50
2019,03,21,00,12,11.50
2019,03,21,00,13,11.50
2019,03,21,00,14,11.60
2019,03,21,00,15,11.60
2019,03,21,00,16,11.60
2019,03,21,00,17,11.60
2019,03,21,00,18,11.50
2019,03,21,00,19,11.50
2019,03,21,00,20,11.40
2019,03,21,00,21,11.40
2019,03,21,00,22,11.30
2019,03,21,00,23,11.20
2019,03,21,00,24,11.10
2019,03,21,00,25,10.90
2019,03,21,00,26,10.70
2019,03,21,00,27,10.60
2019,03,21,00,28,10.40
2019,03,21,00,29,10.40
2019,03,21,00,30,10.30
2019,03,21,00,31,10.30
2019,03,21,00,32,10.30
2019,03,21,00,33,10.40
2019,03,21,00,34,10.50
2019,03,21,00,35,10.60
2019,03,21,00,36,10.60
2019,03,21,00,37,10.70
2019,03,21,00,38,10.70
2019,03,21,00,39,10.80
2019,03,21,00,40,10.90
2019,03,21,00,41,10.90
2019,03,21,00,42,10.90
2019,03,21,00,43,11.00
2019,03,21,00,44,11.00
2019,03,21,00,45,10.90
2019,03,21,00,46,10.90
2019,03,21,00,47,10.90
2019,03,21,00,48,10.90
2019,03,21,00,49,10.90
2019,03,21,00,50,11.00
2019,03,21,00,51,11.00
2019,03,21,00,52,11.00
2019,03,21,00,53,11.00
2019,03,21,00,54,11.00
2019,03,21,00,55,11.10
2019,03,21,00,56,11.10
2019,03,21,00,57,11.10
2019,03,21,00,58,11.10
2019,03,21,00,59,11.10
2019,03,21,01,00,11.10
2019,03,21,01,01,11.10
2019,03,21,01,02,11.10
2019,03,21,01,03,11.10
2019,03,21,01,04,11.10
2019,03,21,01,05,11.10
2019,03,21,01,06,11.10
2019,03,21,01,07,11.10
2019,03,21,01,08,11.10
2019,03,21,01,09,11.10
2019,03,21,01,10,11.10
2019,03,21,01,11,11.10
2019,03,21,01,12,11.10
2019,03,21,01,13,11.10
2019,03,21,01,14,11.10
2019,03,21,01,15,11.10
2019,03,21,01,16,11.00
2019,03,21,01,17,11.00
2019,03,21,01,18,10.90
2019,03,21,01,19,10.90
2019,03,21,01,20,10.90
2019,03,21,01,21,10.90
2019,03,21,01,22,10.90
2019,03,21,01,23,10.90
2019,03,21,01,24,10.90
2019,03,21,01,25,10.90
2019,03,21,01,26,10.90
2019,03,21,01,27,10.90
2019,03,21,01,28,10.90
2019,03,21,01,29,10.90
2019,03,21,01,30,10.90
2019,03,21,01,31,10.90
2019,03,21,01,32,10.90
2019,03,21,01,33,10.90
2019,03,21,01,34,10.80
2019,03,21,01,35,10.80
2019,03,21,01,36,10.80
2019,03,21,01,37,10.70
2019,03,21,01,38,10.70
2019,03,21,01,39,10.60
2019,03,21,01,40,10.60
2019,03,21,01,41,10.60
2019,03,21,01,42,10.50
2019,03,21,01,43,10.50
2019,03,21,01,44,10.50
2019,03,21,01,45,10.50
2019,03,21,01,46,10.50
2019,03,21,01,47,10.50
2019,03,21,01,48,10.50
2019,03,21,01,49,10.60
2019,03,21,01,50,10.60
2019,03,21,01,51,10.60
2019,03,21,01,52,10.70
2019,03,21,01,53,10.70
2019,03,21,01,54,10.70
2019,03,21,01,55,10.70
2019,03,21,01,56,10.80
2019,03,21,01,57,10.80
2019,03,21,01,58,10.80
2019,03,21,01,59,10.80
2019,03,21,02,00,10.90
2019,03,21,02,01,10.90
2019,03,21,02,02,10.90
2019,03,21,02,03,10.90
2019,03,21,02,04,10.90
2019,03,21,02,05,10.90
2019,03,21,02,06,10.90
2019,03,21,02,07,10.90
2019,03,21,02,08,10.90
2019,03,21,02,09,10.90
2019,03,21,02,10,10.90
2019,03,21,02,11,10.90
2019,03,21,02,12,10.90
2019,03,21,02,13,10.90
2019,03,21,02,14,10.80
2019,03,21,02,15,10.80
2019,03,21,02,16,10.80
2019,03,21,02,17,10.80
2019,03,21,02,18,10.80
2019,03,21,02,19,10.80
2019,03,21,02,20,10.80
2019,03,21,02,21,10.80
2019,03,21,02,22,10.80
2019,03,21,02,23,10.70
2019,03,21,02,24,10.70
2019,03,21,02,25,10.80
2019,03,21,02,26,10.70
2019,03,21,02,27,10.70
2019,03,21,02,28,10.70
2019,03,21,02,29,10.70
2019,03,21,02,30,10.70
2019,03,21,02,31,10.70
2019,03,21,02,32,10.70
2019,03,21,02,33,10.60
2019,03,21,02,34,10.50
2019,03,21,02,35,10.40
2019,03,21,02,36,10.30
2019,03,21,02,37,10.20
2019,03,21,02,38,10.10
2019,03,21,02,39,10.00
2019,03,21,02,40,9.80
2019,03,21,02,41,9.70
2019,03,21,02,42,9.60
2019,03,21,02,43,9.50
2019,03,21,02,44,9.50
2019,03,21,02,45,9.40
2019,03,21,02,46,9.40
2019,03,21,02,47,9.40
2019,03,21,02,48,9.50
2019,03,21,02,49,9.50
2019,03,21,02,50,9.60
2019,03,21,02,51,9.60
2019,03,21,02,52,9.60
2019,03,21,02,53,9.70
2019,03,21,02,54,9.70
2019,03,21,02,55,9.70
2019,03,21,02,56,9.70
2019,03,21,02,57,9.70
2019,03,21,02,58,9.70
2019,03,21,02,59,9.60
2019,03,21,03,00,9.60
2019,03,21,03,01,9.60
2019,03,21,03,02,9.50
2019,03,21,03,03,9.50
2019,03,21,03,04,9.50
2019,03,21,03,05,9.40
2019,03,21,03,06,9.40
2019,03,21,03,07,9.40
2019,03,21,03,08,9.40
2019,03,21,03,09,9.40
2019,03,21,03,10,9.40
2019,03,21,03,11,9.40
2019,03,21,03,12,9.40
2019,03,21,03,13,9.40
2019,03,21,03,14,9.50
2019,03,21,03,15,9.50
2019,03,21,03,16,9.60
2019,03,21,03,17,9.60
2019,03,21,03,18,9.60
2019,03,21,03,19,9.60
2019,03,21,03,20,9.60
2019,03,21,03,21,9.60
2019,03,21,03,22,9.50
2019,03,21,03,23,9.60
2019,03,21,03,24,9.60
2019,03,21,03,25,9.60
2019,03,21,03,26,9.60
2019,03,21,03,27,9.60
2019,03,21,03,28,9.60
2019,03,21,03,29,9.60
2019,03,21,03,30,9.60
2019,03,21,03,31,9.60
2019,03,21,03,32,9.60
2019,03,21,03,33,9.70
2019,03,21,03,34,9.80
2019,03,21,03,35,9.80
2019,03,21,03,36,9.90
2019,03,21,03,37,9.90
2019,03,21,03,38,9.90
2019,03,21,03,39,9.90
2019,03,21,03,40,10.00
2019,03,21,03,41,10.00
2019,03,21,03,42,10.00
2019,03,21,03,43,9.90
2019,03,21,03,44,9.90
2019,03,21,03,45,9.90
2019,03,21,03,46,9.90
2019,03,21,03,47,9.90
2019,03,21,03,48,9.80
2019,03,21,03,49,9.80
2019,03,21,03,50,9.90
2019,03,21,03,51,9.90
2019,03,21,03,52,9.80
2019,03,21,03,53,9.80
2019,03,21,03,54,9.70
2019,03,21,03,55,9.60
2019,03,21,03,56,9.50
2019,03,21,03,57,9.40
2019,03,21,03,58,9.40
2019,03,21,03,59,9.30
2019,03,21,04,00,9.20
2019,03,21,04,01,9.10
2019,03,21,04,02,9.10
2019,03,21,04,03,9.00
2019,03,21,04,04,8.90
2019,03,21,04,05,8.80
2019,03,21,04,06,8.70
2019,03,21,04,07,8.60
2019,03,21,04,08,8.50
2019,03,21,04,09,8.40
2019,03,21,04,10,8.30
2019,03,21,04,11,8.20
2019,03,21,04,12,8.10
2019,03,21,04,13,8.00
2019,03,21,04,14,8.00
2019,03,21,04,15,7.90
2019,03,21,04,16,7.80
2019,03,21,04,17,7.80
2019,03,21,04,18,7.70
2019,03,21,04,19,7.70
2019,03,21,04,20,7.60
2019,03,21,04,21,7.50
2019,03,21,04,22,7.50
2019,03,21,04,23,7.50
2019,03,21,04,24,7.40
2019,03,21,04,25,7.40
2019,03,21,04,26,7.30
2019,03,21,04,27,7.30
2019,03,21,04,28,7.30
2019,03,21,04,29,7.30
2019,03,21,04,30,7.30
2019,03,21,04,31,7.40
2019,03,21,04,32,7.40
2019,03,21,04,33,7.40
2019,03,21,04,34,7.50
2019,03,21,04,35,7.60
2019,03,21,04,36,7.60
2019,03,21,04,37,7.70
2019,03,21,04,38,7.70
2019,03,21,04,39,7.60
2019,03,21,04,40,7.60
2019,03,21,04,41,7.60
2019,03,21,04,42,7.50
2019,03,21,04,43,7.50
2019,03,21,04,44,7.40
2019,03,21,04,45,7.40
2019,03,21,04,46,7.30
2019,03,21,04,47,7.30
2019,03,21,04,48,7.30
2019,03,21,04,49,7.40
2019,03,21,04,50,7.50
2019,03,21,04,51,7.50
2019,03,21,04,52,7.60
2019,03,21,04,53,7.70
2019,03,21,04,54,7.70
2019,03,21,04,55,7.80
2019,03,21,04,56,7.80
2019,03,21,04,57,7.80
2019,03,21,04,58,7.80
2019,03,21,04,59,7.80
2019,03,21,05,00,7.80
2019,03,21,05,01,7.80
2019,03,21,05,02,7.90
2019,03,21,05,03,7.90
2019,03,21,05,04,7.90
2019,03,21,05,05,7.90
2019,03,21,05,06,7.90
2019,03,21,05,07,7.90
2019,03,21,05,08,7.90
2019,03,21,05,09,7.90
2019,03,21,05,10,7.80
2019,03,21,05,11,7.80
2019,03,21,05,12,7.80
2019,03,21,05,13,7.80
2019,03,21,05,14,7.80
2019,03,21,05,15,7.80
2019,03,21,05,16,7.80
2019,03,21,05,17,7.80
2019,03,21,05,18,7.70
2019,03,21,05,19,7.70
2019,03,21,05,20,7.70
2019,03,21,05,21,7.70
2019,03,21,05,22,7.70
2019,03,21,05,23,7.70
2019,03,21,05,24,7.70
2019,03,21,05,25,7.70
2019,03,21,05,26,7.70
2019,03,21,05,27,7.70
2019,03,21,05,28,7.70
2019,03,21,05,29,7.70
2019,03,21,05,30,7.70
2019,03,21,05,31,7.70
2019,03,21,05,32,7.70
2019,03,21,05,33,7.70
2019,03,21,05,34,7.70
2019,03,21,05,35,7.60
2019,03,21,05,36,7.60
2019,03,21,05,37,7.60
2019,03,21,05,38,7.60
2019,03,21,05,39,7.60
2019,03,21,05,40,7.60
2019,03,21,05,41,7.60
2019,03,21,05,42,7.60
2019,03,21,05,43,7.60
2019,03,21,05,44,7.60
2019,03,21,05,45,7.60
2019,03,21,05,46,7.60
2019,03,21,05,47,7.60
2019,03,21,05,48,7.60
2019,03,21,05,49,7.70
2019,03,21,05,50,7.70
2019,03,21,05,51,7.70
2019,03,21,05,52,7.70
2019,03,21,05,53,7.70
2019,03,21,05,54,7.70
2019,03,21,05,55,7.70
2019,03,21,05,56,7.70
2019,03,21,05,57,7.70
2019,03,21,05,58,7.70
2019,03,21,05,59,7.70
2019,03,21,06,00,7.70
2019,03,21,06,01,7.70
2019,03,21,06,02,7.70
2019,03,21,06,03,7.70
2019,03,21,06,04,7.70
2019,03,21,06,05,7.60
2019,03,21,06,06,7.60
2019,03,21,06,07,7.60
2019,03,21,06,08,7.60
2019,03,21,06,09,7.60
2019,03,21,06,10,7.60
2019,03,21,06,11,7.70
2019,03,21,06,12,7.60
2019,03,21,06,13,7.60
2019,03,21,06,14,7.60
2019,03,21,06,15,7.60
2019,03,21,06,16,7.50
2019,03,21,06,17,7.50
2019,03,21,06,18,7.50
2019,03,21,06,19,7.40
2019,03,21,06,20,7.40
2019,03,21,06,21,7.40
2019,03,21,06,22,7.40
2019,03,21,06,23,7.30
2019,03,21,06,24,7.30
2019,03,21,06,25,7.20
2019,03,21,06,26,7.20
2019,03,21,06,27,7.20
2019,03,21,06,28,7.10
2019,03,21,06,29,7.10
2019,03,21,06,30,7.10
2019,03,21,06,31,7.10
2019,03,21,06,32,7.10
2019,03,21,06,33,7.00
2019,03,21,06,34,7.00
2019,03,21,06,35,7.00
2019,03,21,06,36,6.90
2019,03,21,06,37,6.90
2019,03,21,06,38,6.90
2019,03,21,06,39,6.80
2019,03,21,06,40,6.70
2019,03,21,06,41,6.60
2019,03,21,06,42,6.50
2019,03,21,06,43,6.30
2019,03,21,06,44,6.20
2019,03,21,06,45,6.10
2019,03,21,06,46,6.00
2019,03,21,06,47,5.90
2019,03,21,06,48,5.80
2019,03,21,06,49,5.80
2019,03,21,06,50,5.80
2019,03,21,06,51,5.70
2019,03,21,06,52,5.70
2019,03,21,06,53,5.80
2019,03,21,06,54,5.80
2019,03,21,06,55,5.90
2019,03,21,06,56,5.90
2019,03,21,06,57,6.00
2019,03,21,06,58,6.10
2019,03,21,06,59,6.10
2019,03,21,07,00,6.20
2019,03,21,07,01,6.30
2019,03,21,07,02,6.30
2019,03,21,07,03,6.40
2019,03,21,07,04,6.50
2019,03,21,07,05,6.50
2019,03,21,07,06,6.60
2019,03,21,07,07,6.60
2019,03,21,07,08,6.70
2019,03,21,07,09,6.70
2019,03,21,07,10,6.80
2019,03,21,07,11,6.80
2019,03,21,07,12,6.90
2019,03,21,07,13,6.90
2019,03,21,07,14,6.90
2019,03,21,07,15,6.80
2019,03,21,07,16,6.60
2019,03,21,07,17,6.50
2019,03,21,07,18,6.40
2019,03,21,07,19,6.30
2019,03,21,07,20,6.20
2019,03,21,07,21,6.10
2019,03,21,07,22,6.10
2019,03,21,07,23,6.00
2019,03,21,07,24,6.00
2019,03,21,07,25,6.00
2019,03,21,07,26,5.90
2019,03,21,07,27,5.90
2019,03,21,07,28,5.90
2019,03,21,07,29,5.90
2019,03,21,07,30,5.80
2019,03,21,07,31,5.80
2019,03,21,07,32,5.80
2019,03,21,07,33,5.90
2019,03,21,07,34,5.90
2019,03,21,07,35,5.90
2019,03,21,07,36,5.80
2019,03,21,07,37,5.80
2019,03,21,07,38,5.70
2019,03,21,07,39,5.70
2019,03,21,07,40,5.60
2019,03,21,07,41,5.60
2019,03,21,07,42,5.60
2019,03,21,07,43,5.60
2019,03,21,07,44,5.50
2019,03,21,07,45,5.50
2019,03,21,07,46,5.50
2019,03,21,07,47,5.50
2019,03,21,07,48,5.40
2019,03,21,07,49,5.40
2019,03,21,07,50,5.40
2019,03,21,07,51,5.40
2019,03,21,07,52,5.40
2019,03,21,07,53,5.40
2019,03,21,07,54,5.40
2019,03,21,07,55,5.50
2019,03,21,07,56,5.50
2019,03,21,07,57,5.60
2019,03,21,07,58,5.60
2019,03,21,07,59,5.60
2019,03,21,08,00,5.60
2019,03,21,08,01,5.70
2019,03,21,08,02,5.70
2019,03,21,08,03,5.70
2019,03,21,08,04,5.70
2019,03,21,08,05,5.70
2019,03,21,08,06,5.70
2019,03,21,08,07,5.70
2019,03,21,08,08,5.80
2019,03,21,08,09,5.80
2019,03,21,08,10,5.80
2019,03,21,08,11,5.90
2019,03,21,08,12,5.90
2019,03,21,08,13,6.00
2019,03,21,08,14,6.00
2019,03,21,08,15,6.10
2019,03,21,08,16,6.20
2019,03,21,08,17,6.30
2019,03,21,08,18,6.40
2019,03,21,08,19,6.50
2019,03,21,08,20,6.50
2019,03,21,08,21,6.60
2019,03,21,08,22,6.70
2019,03,21,08,23,6.80
2019,03,21,08,24,6.80
2019,03,21,08,25,6.90
2019,03,21,08,26,7.00
2019,03,21,08,27,7.00
2019,03,21,08,28,7.10
2019,03,21,08,29,7.10
2019,03,21,08,30,7.20
2019,03,21,08,31,7.20
2019,03,21,08,32,7.20
2019,03,21,08,33,7.30
2019,03,21,08,34,7.30
2019,03,21,08,35,7.30
2019,03,21,08,36,7.40
2019,03,21,08,37,7.40
2019,03,21,08,38,7.40
2019,03,21,08,39,7.50
2019,03,21,08,40,7.50
2019,03,21,08,41,7.60
2019,03,21,08,42,7.60
2019,03,21,08,43,7.70
2019,03,21,08,44,7.70
2019,03,21,08,45,7.70
2019,03,21,08,46,7.80
2019,03,21,08,47,7.80
2019,03,21,08,48,7.80
2019,03,21,08,49,7.90
2019,03,21,08,50,7.90
2019,03,21,08,51,8.00
2019,03,21,08,52,8.00
2019,03,21,08,53,8.10
2019,03,21,08,54,8.10
2019,03,21,08,55,8.10
2019,03,21,08,56,8.20
2019,03,21,08,57,8.20
2019,03,21,08,58,8.30
2019,03,21,08,59,8.40
2019,03,21,09,00,8.40
2019,03,21,09,01,8.50
2019,03,21,09,02,8.50
2019,03,21,09,03,8.50
2019,03,21,09,04,8.60
2019,03,21,09,05,8.60
2019,03,21,09,06,8.60
2019,03,21,09,07,8.70
2019,03,21,09,08,8.70
2019,03,21,09,09,8.80
2019,03,21,09,10,8.80
2019,03,21,09,11,8.80
2019,03,21,09,12,8.80
2019,03,21,09,13,8.90
2019,03,21,09,14,8.90
2019,03,21,09,15,8.90
2019,03,21,09,16,9.00
2019,03,21,09,17,9.00
2019,03,21,09,18,9.10
2019,03,21,09,19,9.10
2019,03,21,09,20,9.20
2019,03,21,09,21,9.20
2019,03,21,09,22,9.30
2019,03,21,09,23,9.30
2019,03,21,09,24,9.40
2019,03,21,09,25,9.40
2019,03,21,09,26,9.50
2019,03,21,09,27,9.50
2019,03,21,09,28,9.50
2019,03,21,09,29,9.60
2019,03,21,09,30,9.60
2019,03,21,09,31,9.60
2019,03,21,09,32,9.70
2019,03,21,09,33,9.70
2019,03,21,09,34,9.70
2019,03,21,09,35,9.70
2019,03,21,09,36,9.80
2019,03,21,09,37,9.80
2019,03,21,09,38,9.90
2019,03,21,09,39,9.90
2019,03,21,09,40,10.00
2019,03,21,09,41,10.10
2019,03,21,09,42,10.10
2019,03,21,09,43,10.10
2019,03,21,09,44,10.10
2019,03,21,09,45,10.20
2019,03,21,09,46,10.20
2019,03,21,09,47,10.30
2019,03,21,09,48,10.30
2019,03,21,09,49,10.40
2019,03,21,09,50,10.40
2019,03,21,09,51,10.50
2019,03,21,09,52,10.60
2019,03,21,09,53,10.60
2019,03,21,09,54,10.70
2019,03,21,09,55,10.70
2019,03,21,09,56,10.80
2019,03,21,09,57,10.80
2019,03,21,09,58,10.90
2019,03,21,09,59,11.00
2019,03,21,10,00,11.00
2019,03,21,10,01,11.10
2019,03,21,10,02,11.10
2019,03,21,10,03,11.10
2019,03,21,10,04,11.20
2019,03,21,10,05,11.20
2019,03,21,10,06,11.30
2019,03,21,10,07,11.30
2019,03,21,10,08,11.40
2019,03,21,10,09,11.50
2019,03,21,10,10,11.50
2019,03,21,10,11,11.60
2019,03,21,10,12,11.60
2019,03,21,10,13,11.70
2019,03,21,10,14,11.70
2019,03,21,10,15,11.80
2019,03,21,10,16,11.80
2019,03,21,10,17,11.80
2019,03,21,10,18,11.90
2019,03,21,10,19,11.90
2019,03,21,10,20,12.00
2019,03,21,10,21,12.10
2019,03,21,10,22,12.10
2019,03,21,10,23,12.10
2019,03,21,10,24,12.10
2019,03,21,10,25,12.20
2019,03,21,10,26,12.20
2019,03,21,10,27,12.20
2019,03,21,10,28,12.30
2019,03,21,10,29,12.30
2019,03,21,10,30,12.30
2019,03,21,10,31,12.30
2019,03,21,10,32,12.40
2019,03,21,10,33,12.40
2019,03,21,10,34,12.40
2019,03,21,10,35,12.50
2019,03,21,10,36,12.50
2019,03,21,10,37,12.60
2019,03,21,10,38,12.70
2019,03,21,10,39,12.70
2019,03,21,10,40,12.70
2019,03,21,10,41,12.70
2019,03,21,10,42,12.70
2019,03,21,10,43,12.70
2019,03,21,10,44,12.70
2019,03,21,10,45,12.70
2019,03,21,10,46,12.80
2019,03,21,10,47,12.80
2019,03,21,10,48,12.80
2019,03,21,10,49,12.80
2019,03,21,10,50,12.80
2019,03,21,10,51,12.70
2019,03,21,10,52,12.60
2019,03,21,10,53,12.50
2019,03,21,10,54,12.40
2019,03,21,10,55,12.40
2019,03,21,10,56,12.50
2019,03,21,10,57,12.50
2019,03,21,10,58,12.60
2019,03,21,10,59,12.60
2019,03,21,11,00,12.60
2019,03,21,11,01,12.60
2019,03,21,11,02,12.60
2019,03,21,11,03,12.60
2019,03,21,11,04,12.60
2019,03,21,11,05,12.60
2019,03,21,11,06,12.70
2019,03,21,11,07,12.70
2019,03,21,11,08,12.70
2019,03,21,11,09,12.70
2019,03,21,11,10,12.70
2019,03,21,11,11,12.70
2019,03,21,11,12,12.60
2019,03,21,11,13,12.60
2019,03,21,11,14,12.60
2019,03,21,11,15,12.60
2019,03,21,11,16,12.50
2019,03,21,11,17,12.50
2019,03,21,11,18,12.50
2019,03,21,11,19,12.50
2019,03,21,11,20,12.50
2019,03,21,11,21,12.50
2019,03,21,11,22,12.50
2019,03,21,11,23,12.60
2019,03,21,11,24,12.60
2019,03,21,11,25,12.60
2019,03,21,11,26,12.70
2019,03,21,11,27,12.80
2019,03,21,11,28,12.80
2019,03,21,11,29,12.80
2019,03,21,11,30,12.80
2019,03,21,11,31,12.80
2019,03,21,11,32,12.80
2019,03,21,11,33,12.80
2019,03,21,11,34,12.80
2019,03,21,11,35,12.80
2019,03,21,11,36,12.80
2019,03,21,11,37,12.80
2019,03,21,11,38,12.80
2019,03,21,11,39,12.90
2019,03,21,11,40,13.00
2019,03,21,11,41,13.00
2019,03,21,11,42,13.00
2019,03,21,11,43,13.00
2019,03,21,11,44,13.00
2019,03,21,11,45,13.00
2019,03,21,11,46,12.90
2019,03,21,11,47,12.90
2019,03,21,11,48,13.00
2019,03,21,11,49,13.00
2019,03,21,11,50,13.10
2019,03,21,11,51,13.20
2019,03,21,11,52,13.20
2019,03,21,11,53,13.20
2019,03,21,11,54,13.30
2019,03,21,11,55,13.20
2019,03,21,11,56,13.20
2019,03,21,11,57,13.20
2019,03,21,11,58,13.20
2019,03,21,11,59,13.20
2019,03,21,12,00,13.30
2019,03,21,12,01,13.30
2019,03,21,12,02,13.30
2019,03,21,12,03,13.40
2019,03,21,12,04,13.40
2019,03,21,12,05,13.50
2019,03,21,12,06,13.60
2019,03,21,12,07,13.60
2019,03,21,12,08,13.80
2019,03,21,12,09,13.80
2019,03,21,12,10,13.80
2019,03,21,12,11,13.80
2019,03,21,12,12,13.80
2019,03,21,12,13,13.70
2019,03,21,12,14,13.70
2019,03,21,12,15,13.60
2019,03,21,12,16,13.50
2019,03,21,12,17,13.40
2019,03,21,12,18,13.40
2019,03,21,12,19,13.40
2019,03,21,12,20,13.50
2019,03,21,12,21,13.50
2019,03,21,12,22,13.40
2019,03,21,12,23,13.40
2019,03,21,12,24,13.40
2019,03,21,12,25,13.40
2019,03,21,12,26,13.40
2019,03,21,12,27,13.30
2019,03,21,12,28,13.20
2019,03,21,12,29,13.20
2019,03,21,12,30,13.20
2019,03,21,12,31,13.10
2019,03,21,12,32,13.10
2019,03,21,12,33,13.10
2019,03,21,12,34,13.10
2019,03,21,12,35,13.10
2019,03,21,12,36,13.10
2019,03,21,12,37,13.10
2019,03,21,12,38,13.10
2019,03,21,12,39,13.10
2019,03,21,12,40,13.20
2019,03,21,12,41,13.20
2019,03,21,12,42,13.20
2019,03,21,12,43,13.20
2019,03,21,12,44,13.20
2019,03,21,12,45,13.30
2019,03,21,12,46,13.30
2019,03,21,12,47,13.30
2019,03,21,12,48,13.40
2019,03,21,12,49,13.30
2019,03,21,12,50,13.30
2019,03,21,12,51,13.40
2019,03,21,12,52,13.40
2019,03,21,12,53,13.30
2019,03,21,12,54,13.20
2019,03,21,12,55,13.20
2019,03,21,12,56,13.20
2019,03,21,12,57,13.20
2019,03,21,12,58,13.10
2019,03,21,12,59,13.20
2019,03,21,13,00,13.10
2019,03,21,13,01,13.00
2019,03,21,13,02,13.00
2019,03,21,13,03,13.00
2019,03,21,13,04,13.00
2019,03,21,13,05,13.10
2019,03,21,13,06,13.10
2019,03,21,13,07,13.10
2019,03,21,13,08,13.20
2019,03,21,13,09,13.20
2019,03,21,13,10,13.30
2019,03,21,13,11,13.40
2019,03,21,13,12,13.50
2019,03,21,13,13,13.60
2019,03,21,13,14,13.60
2019,03,21,13,15,13.70
2019,03,21,13,16,13.70
2019,03,21,13,17,13.70
2019,03,21,13,18,13.80
2019,03,21,13,19,13.90
2019,03,21,13,20,14.00
2019,03,21,13,21,14.10
2019,03,21,13,22,14.20
2019,03,21,13,23,14.20
2019,03,21,13,24,14.30
2019,03,21,13,25,14.30
2019,03,21,13,26,14.30
2019,03,21,13,27,14.30
2019,03,21,13,28,14.30
2019,03,21,13,29,14.20
2019,03,21,13,30,14.30
2019,03,21,13,31,14.30
2019,03,21,13,32,14.40
2019,03,21,13,33,14.30
2019,03,21,13,34,14.30
2019,03,21,13,35,14.40
2019,03,21,13,36,14.40
2019,03,21,13,37,14.40
2019,03,21,13,38,14.40
2019,03,21,13,39,14.30
2019,03,21,13,40,14.30
2019,03,21,13,41,14.20
2019,03,21,13,42,14.20
2019,03,21,13,43,14.20
2019,03,21,13,44,14.20
2019,03,21,13,45,14.20
2019,03,21,13,46,14.20
2019,03,21,13,47,14.20
2019,03,21,13,48,14.20
2019,03,21,13,49,14.20
2019,03,21,13,50,14.20
2019,03,21,13,51,14.10
2019,03,21,13,52,14.10
2019,03,21,13,53,14.20
2019,03,21,13,54,14.20
2019,03,21,13,55,14.20
2019,03,21,13,56,14.20
2019,03,21,13,57,14.10
2019,03,21,13,58,14.10
2019,03,21,13,59,14.10
2019,03,21,14,00,14.10
2019,03,21,14,01,14.10
2019,03,21,14,02,14.10
2019,03,21,14,03,14.10
2019,03,21,14,04,14.10
2019,03,21,14,05,14.10
2019,03,21,14,06,14.10
2019,03,21,14,07,14.10
2019,03,21,14,08,14.20
2019,03,21,14,09,14.20
2019,03,21,14,10,14.20
2019,03,21,14,11,14.20
2019,03,21,14,12,14.20
2019,03,21,14,13,14.30
2019,03,21,14,14,14.30
2019,03,21,14,15,14.30
2019,03,21,14,16,14.40
2019,03,21,14,17,14.40
2019,03,21,14,18,14.40
2019,03,21,14,19,14.40
2019,03,21,14,20,14.30
2019,03,21,14,21,14.30
2019,03,21,14,22,14.30
2019,03,21,14,23,14.30
2019,03,21,14,24,14.30
2019,03,21,14,25,14.20
2019,03,21,14,26,14.10
2019,03,21,14,27,14.10
2019,03,21,14,28,14.00
2019,03,21,14,29,14.00
2019,03,21,14,30,13.90
2019,03,21,14,31,13.90
2019,03,21,14,32,13.90
2019,03,21,14,33,14.10
2019,03,21,14,34,14.10
2019,03,21,14,35,14.10
2019,03,21,14,36,14.10
2019,03,21,14,37,14.10
2019,03,21,14,38,14.00
2019,03,21,14,39,13.90
2019,03,21,14,40,13.80
2019,03,21,14,41,13.80
2019,03,21,14,42,13.80
2019,03,21,14,43,13.90
2019,03,21,14,44,14.00
2019,03,21,14,45,14.10
2019,03,21,14,46,14.10
2019,03,21,14,47,14.10
2019,03,21,14,48,14.10
2019,03,21,14,49,14.10
2019,03,21,14,50,14.10
2019,03,21,14,51,14.10
2019,03,21,14,52,14.10
2019,03,21,14,53,14.10
2019,03,21,14,54,14.10
2019,03,21,14,55,14.10
2019,03,21,14,56,14.10
2019,03,21,14,57,14.10
2019,03,21,14,58,14.20
2019,03,21,14,59,14.20
2019,03,21,15,00,14.20
2019,03,21,15,01,14.20
2019,03,21,15,02,14.20
2019,03,21,15,03,14.10
2019,03,21,15,04,14.10
2019,03,21,15,05,14.00
2019,03,21,15,06,14.00
2019,03,21,15,07,14.10
2019,03,21,15,08,14.10
2019,03,21,15,09,14.20
2019,03,21,15,10,14.20
2019,03,21,15,11,14.10
2019,03,21,15,12,14.00
2019,03,21,15,13,13.90
2019,03,21,15,14,13.80
2019,03,21,15,15,13.80
2019,03,21,15,16,13.80
2019,03,21,15,17,13.80
2019,03,21,15,18,13.80
2019,03,21,15,19,13.80
2019,03,21,15,20,13.80
2019,03,21,15,21,13.90
2019,03,21,15,22,13.90
2019,03,21,15,23,13.80
2019,03,21,15,24,13.70
2019,03,21,15,25,13.70
2019,03,21,15,26,13.60
2019,03,21,15,27,13.60
2019,03,21,15,28,13.60
2019,03,21,15,29,13.60
2019,03,21,15,30,13.60
2019,03,21,15,31,13.70
2019,03,21,15,32,13.60
2019,03,21,15,33,13.50
2019,03,21,15,34,13.50
2019,03,21,15,35,13.40
2019,03,21,15,36,13.40
2019,03,21,15,37,13.50
2019,03,21,15,38,13.50
2019,03,21,15,39,13.50
2019,03,21,15,40,13.60
2019,03,21,15,41,13.60
2019,03,21,15,42,13.60
2019,03,21,15,43,13.60
2019,03,21,15,44,13.60
2019,03,21,15,45,13.60
2019,03,21,15,46,13.70
2019,03,21,15,47,13.80
2019,03,21,15,48,13.80
2019,03,21,15,49,13.90
2019,03,21,15,50,14.00
2019,03,21,15,51,14.00
2019,03,21,15,52,13.90
2019,03,21,15,53,13.90
2019,03,21,15,54,13.90
2019,03,21,15,55,13.90
2019,03,21,15,56,13.90
2019,03,21,15,57,14.00
2019,03,21,15,58,14.00
2019,03,21,15,59,14.00
2019,03,21,16,00,14.00
2019,03,21,16,01,14.00
2019,03,21,16,02,14.10
2019,03,21,16,03,14.10
2019,03,21,16,04,14.00
2019,03,21,16,05,14.10
2019,03,21,16,06,14.10
2019,03,21,16,07,14.10
2019,03,21,16,08,14.20
2019,03,21,16,09,14.20
2019,03,21,16,10,14.20
2019,03,21,16,11,14.20
2019,03,21,16,12,14.30
2019,03,21,16,13,14.30
2019,03,21,16,14,14.30
2019,03,21,16,15,14.30
2019,03,21,16,16,14.30
2019,03,21,16,17,14.30
2019,03,21,16,18,14.30
2019,03,21,16,19,14.30
2019,03,21,16,20,14.40
2019,03,21,16,21,14.40
2019,03,21,16,22,14.40
2019,03,21,16,23,14.40
2019,03,21,16,24,14.40
2019,03,21,16,25,14.40
2019,03,21,16,26,14.40
2019,03,21,16,27,14.30
2019,03,21,16,28,14.20
2019,03,21,16,29,14.20
2019,03,21,16,30,14.20
2019,03,21,16,31,14.20
2019,03,21,16,32,14.20
2019,03,21,16,33,14.20
2019,03,21,16,34,14.10
2019,03,21,16,35,14.00
2019,03,21,16,36,14.00
2019,03,21,16,37,14.00
2019,03,21,16,38,13.90
2019,03,21,16,39,13.90
2019,03,21,16,40,13.80
2019,03,21,16,41,13.80
2019,03,21,16,42,13.70
2019,03,21,16,43,13.70
2019,03,21,16,44,13.60
2019,03,21,16,45,13.60
2019,03,21,16,46,13.50
2019,03,21,16,47,13.50
2019,03,21,16,48,13.40
2019,03,21,16,49,13.30
2019,03,21,16,50,13.30
2019,03,21,16,51,13.30
2019,03,21,16,52,13.20
2019,03,21,16,53,13.10
2019,03,21,16,54,13.10
2019,03,21,16,55,13.10
2019,03,21,16,56,13.10
2019,03,21,16,57,13.10
2019,03,21,16,58,13.10
2019,03,21,16,59,13.10
2019,03,21,17,00,13.10
2019,03,21,17,01,13.10
2019,03,21,17,02,13.10
2019,03,21,17,03,13.10
2019,03,21,17,04,13.10
2019,03,21,17,05,13.10
2019,03,21,17,06,13.10
2019,03,21,17,07,13.20
2019,03,21,17,08,13.20
2019,03,21,17,09,13.20
2019,03,21,17,10,13.30
2019,03,21,17,11,13.30
2019,03,21,17,12,13.40
2019,03,21,17,13,13.50
2019,03,21,17,14,13.60
2019,03,21,17,15,13.70
2019,03,21,17,16,13.80
2019,03,21,17,17,13.90
2019,03,21,17,18,14.00
2019,03,21,17,19,14.10
2019,03,21,17,20,14.20
2019,03,21,17,21,14.30
2019,03,21,17,22,14.40
2019,03,21,17,23,14.40
2019,03,21,17,24,14.40
2019,03,21,17,25,14.40
2019,03,21,17,26,14.40
2019,03,21,17,27,14.50
2019,03,21,17,28,14.50
2019,03,21,17,29,14.50
2019,03,21,17,30,14.50
2019,03,21,17,31,14.50
2019,03,21,17,32,14.50
2019,03,21,17,33,14.50
2019,03,21,17,34,14.50
2019,03,21,17,35,14.40
2019,03,21,17,36,14.50
2019,03,21,17,37,14.50